Location: Ctibo?
(49.7372°N, 14.9054°E)
Time: 06:38:48
(UTC+00:00)

Daily predictions for brighter satellites

Satellite Brightness Start Highest point End
(mag) Time Altitude Azimuth Time Altitude Azimuth Time Altitude Azimuth
MetOp-B 4.3 19:47:52 10° SSE 19:53:14 85° WSW 19:58:38 10° NNW
Cosmos 1110 Rocket 4.1 19:48:45 10° S 19:53:49 59° ESE 19:58:58 10° NNE
Cosmos 1908 3.2 19:51:59 10° N 19:55:53 81° E 19:59:44 10° SSE
In-Cosmos 22 4.2 19:51:34 10° SSW 19:56:51 84° WNW 20:02:12 10° N
Cosmos 1544 Rocket 3.8 19:52:45 10° N 19:57:11 59° ENE 20:01:34 10° SSE
Cosmos 1626 2.5 19:56:28 10° SSE 20:00:00 45° E 20:03:33 10° NNE
Cosmos 1455 Rocket 3.2 19:57:08 10° NNW 20:01:37 79° W 20:06:04 10° S
FALCON 9 DEB 3.0 19:58:29 10° WSW 20:01:55 83° SSE 20:05:21 10° ENE
Cosmos 2100 Rocket 4.1 19:56:32 10° N 20:02:57 89° E 20:09:17 10° S
ARIANE 5 R/B 2.8 20:01:36 10° SSE 20:06:01 67° ENE 20:10:30 10° N
BREEZE-M DEB (TANK) 2.9 20:05:28 10° SW 20:07:53 43° SSE 20:12:47 10° ENE
ATLAS 3B R/B 2.9 20:02:01 10° S 20:08:12 47° ESE 20:14:36 10° NE
Cosmos 1707 4.5 20:04:57 10° SW 20:08:32 35° WNW 20:12:09 10° N
Cosmos 1461 4.2 20:07:16 10° NW 20:11:03 32° WSW 20:14:40 10° S
Cosmos 2333 4.4 20:05:42 10° S 20:11:17 54° ESE 20:16:51 10° NE
ATLAS CENTAUR R/B 1.6 20:09:34 10° NW 20:13:54 74° SW 20:18:22 11° SSE
Cosmos 2173 Rocket 4.2 20:09:32 10° NNW 20:15:57 80° W 20:22:18 10° S
Cosmos 405 3.1 20:13:11 10° N 20:16:37 56° ENE 20:19:49 11° SSE
Cosmos 2016 Rocket 4.0 20:13:47 10° N 20:19:55 77° E 20:26:03 10° SSE
SL-4 R/B 3.5 20:19:24 10° S 20:22:01 16° SE 20:24:32 10° E
Cosmos 2219 Rocket 2.5 20:18:38 10° S 20:24:04 49° ESE 20:29:32 10° NE
Meteor 2-5 Rocket 4.1 20:19:16 10° SSE 20:24:32 46° E 20:29:53 10° NNE
Cosmos 2333 Rocket 2.3 20:19:46 10° S 20:25:23 58° ESE 20:31:00 10° NE
FALCON 9 DEB 3.3 20:24:29 10° SW 20:27:26 39° SSE 20:30:24 10° ENE
ERS-1 Rocket 3.0 20:24:09 10° SSE 20:29:12 84° ENE 20:34:17 10° NNW
Geosat 4.0 20:24:37 11° SSE 20:29:27 88° WSW 20:34:31 10° NNW
Cosmos 1025 Rocket 3.1 20:25:36 10° S 20:29:59 84° WNW 20:34:22 10° N
Cosmos 1844 4.3 20:25:01 10° NW 20:30:23 50° WSW 20:35:47 10° S
Lacrosse 5 rocket 1.0 20:27:29 10° SW 20:31:09 88° NW 20:34:45 10° NE
OPS 8737 4.3 20:27:39 10° SW 20:31:35 76° SE 20:34:39 10° NE
Cosmos 1536 Rocket 3.7 20:28:33 10° S 20:32:55 59° E 20:37:19 10° NNE
Cosmos 2228 4.0 20:29:44 10° N 20:33:49 35° ENE 20:37:16 13° SE
Spot 2 Rocket 3.9 20:29:02 10° S 20:34:03 64° WSW 20:39:07 10° NNW
USA 215 4.5 20:29:57 10° E 20:34:17 18° ESE 20:38:12 11° SSE
Cosmos 1725 Rocket 4.0 20:28:06 10° N 20:34:20 84° E 20:40:27 10° S
Cosmos 1331 Rocket 4.3 20:32:29 10° SSW 20:37:43 71° WNW 20:43:02 10° NNE
DNEPR-1 R/B 3.9 20:35:51 10° NW 20:39:58 53° SW 20:43:36 14° SSE
FALCON 9 DEB 2.7 20:39:58 10° SW 20:43:01 66° SSE 20:46:06 10° ENE
CARTOSAT-1 4.3 20:40:36 10° S 20:44:47 49° W 20:49:01 10° NNW
CENTAUR R/B 4.4 20:39:13 10° W 20:45:13 38° NNW 20:52:17 10° NE
Cosmos 2237 Rocket 3.4 20:41:59 14° SSE 20:45:25 24° ESE 20:49:47 10° NE
Terra 1.8 20:41:19 13° SSE 20:45:33 84° ENE 20:50:21 10° NNW
SL-14 R/B 3.4 20:42:09 10° S 20:46:12 84° W 20:50:14 10° N
Cosmos 2360 Rocket 3.1 20:42:59 10° SW 20:48:30 53° NW 20:54:02 10° NNE
Cosmos 1953 4.4 20:47:36 10° NW 20:50:56 24° W 20:54:14 10° SW
FALCON 9 DEB 2.8 20:47:55 10° SW 20:50:59 62° SSE 20:54:04 10° ENE
Cosmos 1455 3.6 20:49:25 10° NNE 20:52:40 26° ENE 20:55:06 14° ESE
Cosmos 2322 Rocket 4.1 20:47:45 10° WSW 20:52:56 34° NW 20:58:07 10° NNE
SPOT 5 3.3 20:48:16 11° S 20:53:07 63° WSW 20:57:55 10° NNW
SL-16 R/B 4.4 20:48:16 10° WSW 20:53:08 29° NW 20:58:03 10° NNE
FALCON 9 DEB 2.7 20:50:28 10° WSW 20:53:34 74° SSE 20:56:41 10° ENE
Meteor 1-24 Rocket 3.7 20:51:24 11° S 20:56:30 67° E 21:02:01 10° NNE
H-2A R/B 3.6 20:52:37 10° NNE 20:56:38 55° E 20:59:53 15° S
Cosmos 1302 Rocket 4.0 20:53:45 10° SSW 20:59:01 87° WNW 21:04:18 10° NNE
GEOS 3 Rocket 4.5 20:57:33 10° ESE 21:02:41 48° NE 21:07:47 10° NW
Cosmos 1300 3.3 20:59:28 10° NNW 21:03:12 52° W 21:06:19 14° S
Resurs 01 Rocket 4.3 21:04:44 10° WSW 21:06:26 12° W 21:08:08 10° WNW
USA 267 3.9 21:03:56 10° E 21:10:18 57° NNE 21:16:42 10° WNW
Cosmos 1340 3.9 21:08:42 10° SW 21:12:15 40° WNW 21:15:51 10° N
Cosmos 2322 4.1 21:10:28 10° SW 21:16:05 65° WNW 21:21:45 10° NNE
Cosmos 2278 Rocket 2.2 21:11:02 10° NNW 21:16:45 87° ENE 21:20:55 19° SSE
COSMOS 2428 2.8 21:11:58 10° SSW 21:17:43 86° WNW 21:23:31 10° NNE
Cosmos 389 Rocket 2.4 21:18:56 10° NNW 21:22:22 76° W 21:24:17 24° S
GENESIS II 4.4 21:20:01 17° SSW 21:22:49 48° ESE 21:26:35 10° NE
NOSS 0 Rocket 4.0 21:18:00 11° S 21:23:46 59° ESE 21:29:54 10° NE
Cosmos 1726 Rocket 3.6 21:19:37 10° N 21:24:06 72° ENE 21:26:53 22° SSE
Cosmos 2058 Rocket 3.7 21:20:11 10° N 21:24:29 46° ENE 21:27:07 21° SE
Cosmos 1867 4.0 21:19:57 10° NW 21:25:18 53° WSW 21:28:54 20° S
Cosmos 968 Rocket 4.3 21:25:01 10° NW 21:29:51 42° WSW 21:33:29 17° S
CZ-3B R/B 4.5 21:02:51 10° WSW 21:35:33 85° NNW 21:41:27 10° ENE
SJ 16-02 3.1 21:33:28 10° N 21:37:04 24° NE 21:40:30 11° ESE
FALCON 9 DEB 4.2 21:35:39 10° W 21:38:59 47° N 21:42:18 10° ENE
Meteor 2-10 Rocket 3.9 21:34:07 10° NNW 21:39:03 53° W 21:42:36 18° SSW
Cosmos 1606 Rocket 3.8 21:35:17 10° NNW 21:39:44 65° W 21:42:32 22° S
Cosmos 1943 Rocket 3.4 21:37:17 10° NNW 21:42:21 35° NE 21:47:23 10° ESE
Cosmos 1992 Rocket 4.0 21:37:58 12° SSW 21:42:53 86° WNW 21:48:10 10° NNE
Spot 4 3.9 21:41:10 23° SSE 21:44:08 69° ENE 21:48:54 10° N
Cosmos 1892 Rocket 3.5 21:43:59 24° S 21:46:37 75° E 21:51:06 10° NNE
Cosmos 1891 Rocket 4.5 21:42:39 10° N 21:48:52 85° E 21:53:08 22° S
Cosmos 1346 Rocket 3.5 21:47:03 15° SSW 21:50:14 51° WNW 21:54:12 10° N
Meteor 1-4 Rocket 3.6 21:47:48 10° N 21:50:59 32° ENE 21:52:29 22° ESE
Cosmos 1354 Rocket 4.1 21:46:25 10° NNW 21:51:46 72° WSW 21:55:00 24° S
ATLAS CENTAUR R/B 3.9 21:50:34 10° W 21:52:08 12° WSW 21:53:42 10° SW
Cosmos 1513 Rocket 4.4 21:46:11 10° N 21:52:19 87° ENE 21:56:24 23° S
Cosmos 1980 3.7 21:51:14 15° SSW 21:56:01 80° ESE 22:01:45 10° NNE
Cosmos 1441 Rocket 3.5 21:54:42 30° SSE 21:56:15 50° E 21:59:57 10° NNE
BREEZE-M DEB (TANK) 3.2 21:48:45 10° SW 21:57:28 45° SSE 22:00:33 10° E
ATLAS 3B R/B 3.5 21:52:27 10° WSW 21:58:53 52° NW 22:05:35 10° NE
ALOS 2 3.0 21:57:54 24° SE 22:00:20 56° ENE 22:04:39 10° N
SL-4 R/B 1.8 21:57:06 10° SW 22:01:06 60° SSE 22:04:49 10° ENE
NOSS 3-1 (C) 4.3 21:59:23 22° SE 22:01:15 26° ESE 22:06:11 10° ENE
FALCON 9 DEB 3.6 22:00:01 10° W 22:03:06 56° NNW 22:06:12 10° ENE
Cosmos 724 4.4 22:00:42 10° NW 22:06:57 81° NE 22:11:24 19° SE
Cosmos 2219 Rocket 3.7 22:03:01 10° WSW 22:08:13 36° NW 22:13:26 10° NNE
Cosmos 1607 4.3 22:03:03 10° NW 22:09:14 52° WSW 22:12:53 24° S
Cosmos 2333 Rocket 4.0 22:04:53 10° WSW 22:10:00 32° NW 22:15:06 10° NNE
Cosmos 1703 3.2 22:08:43 32° S 22:10:29 75° E 22:14:26 10° NNE
Lacrosse 5 rocket 3.2 22:07:22 10° WNW 22:10:35 29° NNW 22:13:47 10° NE
Cosmos 1626 Rocket 3.9 22:12:19 29° SSE 22:14:19 51° E 22:18:37 10° NNE
USA 215 3.3 22:11:46 10° ENE 22:18:14 61° SE 22:24:42 10° SW
FALCON 9 DEB 4.0 22:15:44 10° W 22:18:44 46° N 22:21:45 10° ENE
Meteor 2-1 Rocket 4.3 22:13:28 10° NNW 22:18:57 67° W 22:22:14 25° S
Cosmos 2346 Rocket 4.4 22:16:23 23° S 22:20:26 89° E 22:26:41 10° N
Cosmos 1602 Rocket 4.2 22:20:35 28° SSE 22:22:31 45° E 22:26:49 10° NNE
Terra 4.2 22:21:29 10° WSW 22:23:56 14° W 22:26:24 10° NW
COBE Rocket 4.0 22:22:10 27° S 22:24:53 71° WSW 22:29:48 10° NNW
FALCON 9 DEB 3.9 22:23:44 10° W 22:26:46 47° N 22:29:49 10° ENE
SL-16 R/B 2.5 22:23:55 26° S 22:26:50 50° ESE 22:32:18 10° NE
Cosmos 1455 3.7 22:24:56 10° NNW 22:28:14 28° W 22:29:59 19° SW
Cosmos 2237 Rocket 2.5 22:23:44 12° SW 22:29:00 66° WNW 22:34:38 10° NNE
FALCON 9 DEB 4.0 22:26:19 10° W 22:29:21 45° N 22:32:21 10° ENE
Cosmos 1464 Rocket 4.4 22:24:06 10° NNW 22:30:19 57° W 22:34:26 22° SSW
Cosmos-2242 4.0 22:27:02 10° N 22:31:12 39° ENE 22:33:34 22° SE
Cosmos 1184 Rocket 3.9 22:29:49 22° SW 22:31:20 36° WNW 22:34:24 10° N
Cosmos 1328 3.7 22:31:00 35° S 22:32:32 82° E 22:36:28 10° NNE
Cosmos 2369 Rocket 3.1 22:31:00 10° NNW 22:36:32 46° NE 22:41:40 12° SE
Cosmos 1634 Rocket 4.3 22:33:10 10° N 22:39:28 64° ENE 22:43:33 23° SSE
GEOS 3 Rocket 4.1 22:38:08 27° S 22:40:43 47° SW 22:45:53 10° NW
ATLAS CENTAUR R/B 3.6 22:40:44 15° SW 22:45:20 76° SE 22:59:35 10° NE
USA 32 4.0 22:45:18 10° N 22:50:36 83° W 22:53:23 29° S
Aureole 3 3.5 22:47:16 10° N 22:51:06 74° E 22:53:19 30° SSE
NOSS 2-3 (D) 4.2 22:51:08 32° SSE 22:52:18 39° ESE 22:56:43 10° NE
USA 267 3.2 22:46:53 11° SE 22:53:13 75° SW 22:59:48 10° WNW
Cosmos 1812 Rocket 3.6 22:53:07 10° NNW 22:57:28 72° W 22:59:21 33° S
Cosmos 2278 Rocket 4.1 22:56:31 10° WNW 23:00:04 17° W 23:02:45 13° SW
BREEZE-M DEB (TANK) 3.3 22:57:20 10° W 23:01:10 90° ENE 23:13:36 10° E
Cosmos 2297 3.9 22:57:45 10° NW 23:03:17 57° WSW 23:06:10 28° S
Thor Agena Rocket 3.6 23:01:44 10° NNE 23:07:01 74° ESE 23:09:46 29° S
SAR-Lupe-2 3.7 23:04:37 10° N 23:08:13 68° WNW 23:09:33 35° SW
NOSS 2-3 (C) 3.7 23:07:22 34° S 23:09:00 56° SE 23:13:47 10° NE
Resurs 1-4 Rocket 4.3 23:11:39 10° NE 23:14:39 15° E 23:17:38 10° ESE
SJ 16-02 1.8 23:11:41 10° NNW 23:15:52 45° WSW 23:17:27 31° SSW
FALCON 9 DEB 3.5 23:12:46 10° WNW 23:16:10 65° NNE 23:19:33 10° E
Cosmos 1174 4.4 23:14:18 19° SW 23:18:18 80° NW 23:22:50 10° NE
Meteor 1-11 4.4 23:19:57 24° SSW 23:23:21 65° WNW 23:28:55 10° N
Exosat Rocket 4.3 23:20:17 24° S 23:23:44 48° ESE 23:28:46 10° NE
GP-B 3.5 23:19:33 10° N 23:23:55 56° W 23:26:01 28° SSW
Meteor 1-27 4.2 23:18:35 10° NNW 23:24:08 72° W 23:27:14 27° S
Meteor 1-4 Rocket 4.4 23:23:18 10° NW 23:25:44 18° W 23:26:36 17° WSW
Cosmos 1943 Rocket 2.5 23:20:59 10° NW 23:26:16 48° WSW 23:28:53 27° SSW
In-Cosmos 22 Rocket 4.2 23:23:39 27° S 23:26:45 71° E 23:32:11 10° NNE
Cosmos 1825 Rocket 3.5 23:25:14 32° S 23:27:17 86° E 23:31:46 10° N
Cosmos 1932 4.4 23:24:04 10° NW 23:30:20 87° NE 23:36:16 11° SE
X-37B 2.9 23:33:13 14° ESE 23:33:13 14° ESE 23:33:50 10° ESE
Cosmos 1892 2.6 23:30:16 36° S 23:31:46 87° ESE 23:35:41 10° N
Cosmos 2142 Rocket 4.5 23:27:56 10° NNW 23:34:04 77° W 23:37:52 25° S
Cosmos 540 Rocket 4.4 23:32:30 22° SSE 23:35:02 36° ESE 23:39:42 10° NE
Cosmos 1437 Rocket 3.4 23:31:21 10° N 23:35:09 50° ENE 23:37:15 23° SE
Helios 1A 3.8 23:32:32 18° SE 23:35:21 47° ENE 23:39:24 10° N
Cosmos 1869 3.4 23:32:22 10° NNW 23:36:28 68° W 23:38:08 33° S
CZ-2D R/B 3.9 23:32:48 10° NE 23:36:45 21° E 23:40:22 11° SE
ALOS 2 4.5 23:35:17 15° WSW 23:37:00 18° W 23:40:05 10° NW
FALCON 9 DEB 4.0 23:36:04 10° WNW 23:39:07 45° N 23:42:10 10° E
Cosmos 1943 3.7 23:36:45 25° S 23:39:43 48° ESE 23:45:08 10° NE
Cosmos 990 Rocket 4.0 23:34:48 10° NNW 23:39:58 68° WSW 23:42:50 26° S
SL-4 R/B 2.1 23:36:50 10° W 23:40:42 66° N 23:44:18 10° ENE
Lacrosse 4 Rocket 3.0 23:37:08 10° NNW 23:40:55 33° NE 23:44:37 10° ESE
EO 1 Del DPAF 3.1 23:37:27 10° NNE 23:41:11 77° ESE 23:42:38 35° S
USA 229 DEB 3.6 23:38:46 22° SSW 23:43:11 78° SE 23:50:06 10° NE
USA 229 3.6 23:38:53 22° SSW 23:43:17 77° SE 23:50:12 10° NE
NOSS 8 (F) 4.1 23:43:54 36° SW 23:45:01 78° NW 23:47:59 10° NE
Cosmos 841 Rocket 4.3 23:44:06 22° SSE 23:46:51 39° ESE 23:51:36 10° NE
Cosmos 1603 3.9 23:46:12 25° S 23:49:23 58° ESE 23:54:57 10° NE
Lacrosse 5 rocket 3.3 23:47:18 10° NW 23:50:26 27° N 23:53:34 10° ENE
NOSS 3-1 (C) 3.6 23:46:45 15° SW 23:51:23 69° NW 23:57:56 10° NE
Cosmos 1953 Rocket 3.5 23:50:42 30° SSW 23:52:50 80° W 23:57:17 10° N
SL-16 R/B 3.4 23:47:02 10° SE 23:52:54 47° ENE 23:58:47 10° N
Cosmos 1242 Rocket 3.5 23:49:29 10° N 23:52:56 42° ENE 23:55:13 19° SE
Cosmos 1408 2.8 23:53:09 33° SW 23:54:37 61° WNW 23:58:18 10° N
FALCON 9 DEB 3.6 23:51:36 10° WNW 23:54:39 54° NNE 23:57:41 10° E
Cosmos 1825 2.1 23:54:28 33° S 23:56:03 79° E 23:59:50 10° NNE
